User: anonymous   Login
Location: Vallejo Observatory
(38.1221°N, 122.2109°W)
Time: 20:08:28
(UTC-07:00)
Language:

MOS 1 Rocket - Orbit

View from above orbital plane
View from above orbital plane
View from above satellite
View from above satellite

Ground track
Ground track

The orbit data is extracted from the following two-line orbital elements,

1 17528U 87018B   15087.77604815  .00000704  00000-0  16524-3 0  9998
2 17528 097.4254 129.4043 0152119 322.1502 170.2565 14.50351360482247
Epoch (UTC): 28 March 2015 18:37:30
Eccentricity: 0.0152119
inclination: 97.4254°
perigee height: 616 km
apogee height: 832 km
right ascension of ascending node: 129.4043°
argument of perigee: 322.1502°
revolutions per day: 14.50351360
mean anomaly at epoch: 170.2565°
orbit number at epoch: 48224

The dashed part of the orbit path shows where the satellite is in the earth's shadow,  

DLR